Location: Fountain Hills
(33.6120°N, 111.7170°W)
Time: 06:22:29
(UTC-07:00)

Hamsat - Visible Passes

Search period start: 29 May 2016 00:00
Search period end: 08 June 2016 00:00
Orbit: 587 x 619 km, 97.6° (Epoch: 28 May)

Date Brightness Start Highest point End Pass type
(mag) Time Alt. Az. Time Alt. Az. Time Alt. Az.
29 May ? 04:12:23 10° NE 04:15:34 20° E 04:18:43 10° SE visible
30 May ? 04:24:02 10° NE 04:27:45 27° E 04:31:25 10° SSE visible
31 May ? 04:35:51 10° NNE 04:39:54 38° E 04:43:55 10° SSE visible
04 Jun ? 03:51:31 10° E 03:52:16 10° E 03:53:00 10° ESE visible
05 Jun ? 04:02:00 10° ENE 04:04:28 15° E 04:06:56 10° SE visible
06 Jun ? 04:13:23 10° NE 04:16:39 21° E 04:19:53 10° SE visible
07 Jun ? 04:25:03 10° NE 04:28:49 29° E 04:32:32 10° SSE visible
